Danville, VA

2:53 PM EDT on June 23, 2017 (GMT -0400)
Danville Regional

Weather History for KDAN - March, 2015

Change the Weather History Date:

Tuesday, March 10, 2015

  Actual Average Record
Temperature  
Mean Temperature 60 °F 47 °F  
Max Temperature 70 °F 57 °F 82 °F (1974)
Min Temperature 49 °F 36 °F 16 °F (1996)
Degree Days  
Heating Degree Days 5 18  
Month to date heating degree days 204 197  
Since 1 July heating degree days 3298 3198  
Cooling Degree Days 0 0  
Month to date cooling degree days 0 0  
Year to date cooling degree days 0 0  
Growing Degree Days 10 (Base 50)    
Moisture  
Dew Point 49 °F    
Average Humidity 70    
Maximum Humidity 86    
Minimum Humidity 53    
Precipitation  
Precipitation 0.01 in 0.11 in 0.94 in (1978)
Month to date precipitation 1.26 1.08  
Year to date precipitation 5.05 7.51  
Snow  
Snow 0.00 in - - ()
Month to date snowfall T  
Since 1 July snowfall 9.8  
Snow Depth 0.00 in    
Sea Level Pressure  
Sea Level Pressure 30.14 in    
Wind  
Wind Speed 3 mph (SW)    
Max Wind Speed 13 mph    
Max Gust Speed 19 mph    
Visibility 10 miles    
Events Rain    
T = Trace of Precipitation, MM = Missing Value Source: NWS Daily Summary

Daily Weather History Graph

Daily Weather History Graph

Search for Another Location

Airport or City:

Trip Planner

Search our weather history database for the weather conditions in past years. The results will help you decide how hot, cold, wet, or windy it might be!

Date:

Astronomy

Mar. 10, 2015 Rise Set
Actual Time 7:35 AM EDT 7:20 PM EDT
Civil Twilight 7:10 AM EDT 7:45 PM EDT
Nautical Twilight 6:40 AM EDT 8:15 PM EDT
Astronomical Twilight 6:10 AM EDT 8:45 PM EDT
Moon No Moon Rise 10:09 AM EDT (3/10)
Length of Visible Light 12h 35m
Length of Day
11h 44m
Waning Gibbous, 79% of the Moon is Illuminated
Mar 10
Waning Gibbous
Mar 13
Last Quarter
Mar 20
New
Mar 27
First Quarter
Apr 4
Full

Hourly Weather History & Observations

Time (EDT) Temp. Dew Point Humidity Pressure Visibility Wind Dir Wind Speed Gust Speed Precip Events Conditions
12:53 AM 50.0 °F 41.0 °F 71% 30.21 in 10.0 mi Calm Calm - N/A   Clear
1:53 AM 50.0 °F 42.1 °F 74% 30.19 in 10.0 mi Calm Calm - N/A   Overcast
2:53 AM 50.0 °F 41.0 °F 71% 30.21 in 10.0 mi Calm Calm - N/A   Overcast
3:53 AM 51.1 °F 41.0 °F 68% 30.20 in 10.0 mi Calm Calm - N/A   Overcast
4:53 AM 50.0 °F 43.0 °F 77% 30.19 in 10.0 mi Calm Calm - N/A   Overcast
5:53 AM 50.0 °F 43.0 °F 77% 30.19 in 10.0 mi Calm Calm - N/A   Overcast
6:53 AM 50.0 °F 43.0 °F 77% 30.21 in 10.0 mi Calm Calm - 0.00 in Rain Light Rain
7:53 AM 50.0 °F 46.0 °F 86% 30.21 in 10.0 mi Calm Calm - 0.01 in   Overcast
8:53 AM 50.0 °F 46.9 °F 89% 30.23 in 10.0 mi Calm Calm - N/A   Overcast
9:53 AM 52.0 °F 46.9 °F 83% 30.22 in 10.0 mi Calm Calm - N/A   Overcast
10:53 AM 54.0 °F 48.0 °F 80% 30.22 in 10.0 mi Calm Calm - N/A   Overcast
11:53 AM 57.9 °F 48.0 °F 70% 30.20 in 10.0 mi Variable 3.5 mph - N/A   Overcast
12:53 PM 62.1 °F 51.1 °F 67% 30.18 in 10.0 mi SW 4.6 mph - N/A   Mostly Cloudy
1:53 PM 66.9 °F 53.1 °F 61% 30.14 in 10.0 mi SSW 6.9 mph - N/A   Scattered Clouds
2:53 PM 66.9 °F 52.0 °F 59% 30.11 in 10.0 mi SSW 10.4 mph - N/A   Overcast
3:53 PM 69.1 °F 52.0 °F 54% 30.09 in 10.0 mi SSW 9.2 mph - N/A   Mostly Cloudy
4:53 PM 69.1 °F 53.1 °F 57% 30.07 in 10.0 mi SSW 4.6 mph - N/A   Mostly Cloudy
5:53 PM 70.0 °F 54.0 °F 57% 30.05 in 10.0 mi Calm Calm - N/A   Mostly Cloudy
6:53 PM 70.0 °F 53.1 °F 55% 30.05 in 10.0 mi SSW 8.1 mph 16.1 mph N/A   Mostly Cloudy
7:53 PM 66.0 °F 53.1 °F 63% 30.05 in 10.0 mi SW 4.6 mph - N/A   Scattered Clouds
8:53 PM 62.1 °F 53.1 °F 72% 30.06 in 10.0 mi SSW 3.5 mph - N/A   Mostly Cloudy
9:53 PM 64.0 °F 54.0 °F 70% 30.06 in 10.0 mi Calm Calm - N/A   Overcast
10:53 PM 61.0 °F 53.1 °F 75% 30.05 in 10.0 mi SSW 4.6 mph - N/A   Overcast
11:53 PM 62.1 °F 54.0 °F 75% 30.06 in 10.0 mi West 3.5 mph - N/A   Overcast